Temp
63 63 63 64 64 63 63 63 62 63 63 63 63 63 62 62 61 61 62 62 63 63 63 63 63 63 59 52 54 65 69 68 65 62 58 55 50 48 43 46 49 46 47 52 53 53 53
63 63 63 63 63 63 63 63 62 62 63 63 63 62 62 61 61 61 61 61 62 63 63 63 63 62 55 46 64 66 64 63 62 59 57 56 51 52 46 46 43 47 48 49 51 51 52
63 63 62 63 63 63 63 62 62 62 62 62 62 61 61 61 61 61 61 61 62 62 62 62 62 61 53 54 65 64 64 62 62 60 54 57 55 50 48 44 50 49 43 46 48 50 49
63 63 63 63 62 62 62 62 62 62 62 62 62 61 60 60 60 60 60 60 61 61 61 62 63 56 50 64 61 64 63 61 63 62 59 59 57 50 47 50 48 43 41 35 47 49 51
62 62 62 62 63 63 62 62 62 62 62 62 61 61 60 60 60 60 60 60 60 61 62 62 55 52 50 64 59 63 62 58 60 60 60 64 55 47 47 40 39 38 35 35 40 50 49
63 63 63 63 63 63 63 62 62 62 62 61 60 60 60 59 59 59 60 61 61 61 61 62 62 48 55 55 59 62 62 61 56 56 53 51 46 40 39 36 26 33 36 37 37 46 46
63 63 63 63 63 63 63 63 62 62 61 60 60 59 59 59 59 59 56 55 52 50 53 52 52 53 57 59 61 58 61 57 55 50 41 45 38 33 38 40 41 39 37 35 41 48 43
64 64 63 63 63 63 63 62 61 61 60 60 59 59 59 59 59 59 54 50 48 51 44 54 54 55 60 59 53 55 61 49 48 41 44 39 34 43 47 46 43 41 36 36 42 47 45
62 62 61 61 60 60 60 59 59 59 59 58 58 58 58 59 58 56 52 50 56 54 42 50 56 55 55 57 52 52 56 51 46 42 42 37 42 49 46 43 41 39 36 37 38 43 44
60 60 60 59 58 58 58 58 58 58 58 57 57 57 58 58 56 52 50 56 56 54 34 45 50 54 56 54 49 58 57 52 46 42 43 41 47 46 42 41 42 34 43 43 41 36 27
59 59 58 58 58 58 58 58 58 58 57 57 56 57 57 57 50 51 54 55 54 50 23 49 50 60 56 50 51 51 57 51 43 44 42 40 42 42 39 41 45 40 44 41 40 34 30
59 58 58 58 57 58 57 58 58 57 57 56 56 56 56 53 50 53 55 52 51 35 25 40 50 48 47 49 49 50 50 51 49 43 42 42 48 45 45 47 47 46 41 40 37 33 22
58 58 57 57 57 57 57 57 57 57 56 55 55 55 54 56 50 54 53 48 33 28 46 43 45 47 45 44 46 46 44 40 39 33 33 40 41 45 47 41 43 42 33 23 21 22 23
57 57 57 56 56 56 56 56 56 56 55 55 55 55 54 56 54 53 49 42 28 41 41 46 44 44 41 44 45 45 42 38 41 40 34 30 31 42 46 43 39 37 35 24 18 21 23
57 56 56 56 56 56 56 56 56 55 55 54 54 48 50 53 55 51 44 27 35 40 46 43 44 37 40 44 42 40 41 40 43 44 35 32 35 43 46 45 45 37 32 39 31 25 20
56 56 56 56 56 55 55 55 55 55 54 54 46 47 49 55 53 47 39 37 41 48 47 44 38 41 35 38 38 36 38 45 44 45 44 38 31 42 44 45 44 40 41 30 27 22 23
56 56 56 55 55 55 55 55 54 55 55 54 45 41 50 54 52 44 31 34 44 50 50 44 39 38 39 40 40 38 40 45 46 43 44 39 36 37 41 38 37 36 34 35 34 30 24
56 56 56 55 55 55 54 54 54 54 54 48 38 35 50 50 39 35 34 42 47 47 48 47 42 41 40 39 38 38 40 44 48 46 40 42 36 29 37 44 44 41 39 37 29 29 29
55 55 55 55 54 54 54 54 54 54 54 45 39 40 49 48 32 32 38 41 44 45 45 45 43 44 43 38 36 38 40 47 47 45 40 42 34 25 35 38 42 39 40 39 37 32 28
55 55 55 54 54 54 54 53 54 54 53 43 39 33 40 41 40 35 33 36 37 45 43 44 44 45 41 38 41 38 40 45 44 45 49 46 36 34 32 35 37 36 40 38 36 26 28
54 54 54 54 54 54 53 53 53 53 53 44 37 36 37 30 32 32 34 37 36 35 41 42 40 37 35 32 36 37 39 41 43 47 42 40 30 31 36 39 37 37 39 41 33 38 32
54 54 54 54 54 54 53 53 53 53 52 38 31 32 32 29 33 31 33 32 34 33 35 35 35 36 35 33 36 32 35 35 36 39 38 38 30 32 31 40 37 34 40 40 40 40 38
54 54 54 54 54 53 53 53 53 53 48 38 39 40 35 30 27 26 28 30 31 33 35 39 36 33 33 35 39 39 40 42 41 38 35 35 31 29 29 35 34 29 40 42 37 38 41
54 54 54 54 54 53 53 53 53 53 48 38 35 34 28 25 27 28 30 31 30 32 29 35 36 32 37 42 40 40 40 40 40 40 42 37 32 31 27 30 22 40 43 44 41 42 41
54 54 54 53 53 53 53 53 53 53 53 42 37 36 32 25 30 29 29 30 30 32 30 31 35 39 39 39 33 28 29 32 38 38 37 40 37 31 29 25 35 40 44 41 38 41 47
53 53 54 53 53 53 52 52 52 52 52 39 37 39 36 28 25 32 27 28 25 25 27 32 39 43 39 34 29 22 21 28 27 29 31 34 37 35 26 22 23 36 44 45 42 35 50
53 53 53 53 53 52 52 52 52 52 52 44 38 40 35 29 34 33 29 28 32 30 27 30 32 32 35 27 22 20 21 32 26 27 25 25 25 27 30 29 29 39 42 46 34 39 46
52 52 52 52 52 52 52 52 52 52 52 45 39 40 35 31 34 36 36 31 32 30 25 30 29 29 29 24 24 23 24 28 25 28 25 30 27 23 27 27 24 44 40 38 45 47 45
51 51 51 51 51 51 51 52 52 52 52 50 35 41 41 34 33 40 40 41 39 37 32 32 29 29 32 25 22 21 24 26 24 19 33 28 34 33 33 31 42 42 45 46 45 45 46
MSLP
1026.47 1026.28 1026.08 1025.76 1025.42 1025.15 1024.88 1024.65 1024.31 1023.96 1023.45 1023.01 1022.56 1022.15 1021.78 1021.43 1021.05 1020.80 1020.52 1020.32 1020.04 1019.74 1019.52 1019.25 1019.05 1018.81 1018.40 1018.28 1017.55 1017.07 1016.93 1016.94 1016.87 1016.87 1017.00 1016.91 1017.01 1017.13 1017.03 1016.72 1016.35 1016.03 1015.73 1015.37 1014.73 1014.22 1013.64
1026.70 1026.48 1026.26 1025.92 1025.62 1025.30 1025.04 1024.76 1024.49 1024.01 1023.60 1023.11 1022.60 1022.10 1021.65 1021.26 1020.85 1020.46 1020.14 1019.91 1019.70 1019.42 1019.26 1019.14 1018.92 1018.82 1018.68 1018.15 1016.84 1016.90 1016.80 1016.84 1016.93 1017.04 1017.17 1017.13 1017.21 1017.30 1017.41 1017.03 1016.79 1016.19 1015.80 1015.19 1014.61 1013.99 1013.42
1026.88 1026.68 1026.44 1026.14 1025.80 1025.48 1025.14 1024.87 1024.54 1024.15 1023.68 1023.25 1022.67 1022.13 1021.58 1021.07 1020.60 1020.10 1019.71 1019.44 1019.27 1019.03 1018.84 1018.80 1018.79 1018.83 1018.59 1017.44 1016.54 1016.74 1016.74 1016.66 1016.69 1016.89 1017.19 1017.23 1017.21 1017.42 1017.45 1017.08 1016.48 1016.10 1015.95 1015.08 1014.36 1013.67 1013.22
1026.93 1026.75 1026.50 1026.25 1025.99 1025.65 1025.37 1024.96 1024.54 1024.12 1023.67 1023.22 1022.64 1022.10 1021.55 1020.90 1020.29 1019.79 1019.24 1018.88 1018.76 1018.57 1018.47 1018.46 1018.47 1018.71 1017.79 1016.61 1016.69 1016.74 1016.67 1016.65 1016.49 1016.53 1016.72 1016.89 1017.19 1017.41 1017.52 1017.11 1016.56 1016.26 1016.08 1015.70 1014.18 1013.54 1012.80
1027.08 1026.99 1026.63 1026.40 1026.08 1025.66 1025.39 1025.07 1024.58 1024.09 1023.64 1023.10 1022.56 1022.00 1021.43 1020.81 1020.10 1019.45 1018.90 1018.42 1018.05 1017.88 1017.90 1018.14 1018.56 1018.51 1017.42 1016.60 1016.68 1016.38 1016.51 1016.68 1016.58 1016.37 1016.35 1016.47 1017.11 1017.58 1017.40 1017.53 1017.18 1017.02 1016.61 1015.85 1014.58 1013.34 1012.97
1027.20 1026.99 1026.76 1026.50 1026.19 1025.78 1025.35 1025.09 1024.70 1024.16 1023.63 1023.09 1022.40 1021.77 1021.15 1020.51 1019.83 1019.21 1018.46 1017.88 1017.82 1017.89 1017.93 1018.03 1018.06 1018.53 1017.17 1016.43 1016.13 1016.14 1016.35 1016.50 1016.67 1016.61 1016.63 1016.71 1017.15 1017.83 1017.85 1017.84 1017.79 1017.57 1016.92 1015.86 1014.87 1013.55 1013.18
1027.39 1027.13 1026.86 1026.56 1026.27 1025.96 1025.37 1025.01 1024.74 1024.23 1023.67 1023.07 1022.41 1021.64 1021.00 1020.31 1019.59 1018.88 1018.47 1018.13 1018.48 1018.48 1018.13 1017.59 1017.35 1017.08 1016.47 1016.09 1015.91 1016.03 1016.13 1016.49 1016.62 1016.93 1017.03 1017.04 1017.54 1017.72 1017.44 1017.28 1017.05 1017.03 1016.60 1015.90 1014.62 1013.52 1013.19
1027.33 1027.06 1026.80 1026.54 1026.21 1026.03 1025.55 1025.10 1024.74 1024.30 1023.75 1023.15 1022.48 1021.70 1020.92 1020.26 1019.59 1018.88 1018.66 1019.32 1019.78 1019.99 1018.75 1017.09 1016.91 1016.67 1016.10 1015.94 1016.06 1015.89 1016.15 1016.70 1016.81 1016.95 1016.98 1017.44 1017.06 1016.22 1016.47 1016.57 1016.55 1016.46 1016.26 1015.26 1014.19 1013.54 1013.35
1027.58 1027.45 1027.24 1026.96 1026.73 1026.46 1025.98 1025.50 1025.01 1024.42 1023.91 1023.28 1022.58 1021.83 1020.96 1020.02 1019.34 1019.25 1019.54 1019.60 1019.45 1019.73 1019.52 1017.08 1016.27 1015.89 1015.79 1016.08 1015.95 1015.72 1016.17 1016.25 1016.58 1016.83 1016.77 1016.89 1015.83 1015.58 1015.71 1015.97 1016.11 1015.91 1015.77 1015.10 1014.78 1013.97 1013.21
1028.08 1027.98 1027.68 1027.45 1027.11 1026.81 1026.38 1025.73 1025.18 1024.63 1023.92 1023.35 1022.61 1021.92 1021.17 1020.35 1019.63 1019.99 1019.89 1019.66 1019.64 1019.59 1019.53 1017.09 1016.03 1015.40 1015.58 1015.81 1015.96 1015.50 1015.70 1016.30 1016.40 1016.40 1016.18 1016.02 1015.24 1015.32 1015.26 1015.36 1015.52 1015.44 1014.78 1014.92 1014.88 1014.94 1014.58
1028.40 1028.43 1028.10 1027.79 1027.41 1027.04 1026.46 1025.88 1025.26 1024.70 1024.07 1023.25 1022.48 1021.81 1021.28 1020.71 1020.51 1020.01 1019.84 1019.52 1019.50 1019.87 1019.22 1016.75 1015.71 1015.23 1015.39 1015.90 1015.73 1015.64 1015.69 1016.15 1016.46 1016.41 1016.69 1015.43 1015.04 1015.03 1015.05 1014.39 1014.71 1014.75 1014.68 1014.97 1015.16 1015.42 1015.24
1028.88 1028.55 1028.39 1028.04 1027.51 1027.21 1026.56 1025.94 1025.28 1024.69 1024.00 1023.18 1022.21 1021.47 1021.14 1020.53 1020.62 1019.64 1019.57 1019.71 1019.95 1019.87 1018.20 1016.23 1015.53 1015.35 1015.71 1015.60 1015.58 1015.66 1015.84 1016.02 1016.27 1016.39 1016.15 1015.64 1014.78 1014.42 1014.05 1013.79 1013.74 1014.16 1014.69 1014.86 1015.17 1015.75 1015.69
1029.24 1029.01 1028.73 1028.25 1027.78 1027.40 1026.82 1026.01 1025.39 1024.63 1023.79 1022.94 1021.78 1020.96 1020.67 1020.20 1019.80 1019.43 1019.62 1020.15 1020.55 1019.08 1017.15 1016.10 1015.45 1015.43 1015.60 1015.54 1015.40 1015.61 1015.92 1016.09 1016.32 1016.53 1016.19 1015.42 1014.60 1013.82 1013.60 1013.83 1013.76 1014.08 1015.27 1016.11 1016.25 1016.51 1015.47
1029.47 1029.40 1029.12 1028.51 1028.07 1027.52 1027.01 1026.21 1025.44 1024.74 1023.68 1022.60 1021.28 1020.13 1019.68 1019.41 1019.22 1019.51 1019.98 1020.33 1020.18 1017.68 1016.49 1015.61 1015.51 1015.49 1015.66 1015.25 1015.21 1015.28 1015.56 1015.75 1015.51 1016.07 1016.40 1016.16 1014.45 1013.77 1013.41 1013.51 1013.70 1014.32 1014.99 1016.48 1017.03 1016.78 1015.49
1029.95 1029.70 1029.22 1028.85 1028.36 1027.82 1027.30 1026.42 1025.57 1024.75 1023.63 1022.33 1020.86 1019.99 1019.78 1019.48 1019.39 1019.75 1020.30 1020.57 1018.18 1016.84 1015.77 1015.45 1015.37 1015.53 1015.25 1015.07 1015.34 1015.25 1015.24 1015.14 1014.82 1015.06 1015.89 1015.71 1014.60 1013.52 1013.37 1013.27 1013.63 1014.30 1014.75 1014.87 1015.82 1016.17 1016.09
1030.28 1029.92 1029.52 1029.17 1028.74 1028.13 1027.56 1026.76 1025.81 1024.83 1023.60 1022.34 1021.63 1020.85 1020.26 1019.76 1019.63 1020.09 1020.53 1019.54 1017.76 1016.36 1015.82 1015.58 1015.80 1015.48 1015.42 1015.05 1015.31 1015.47 1015.04 1014.12 1014.26 1014.49 1014.73 1015.36 1015.10 1013.70 1013.39 1013.40 1013.41 1013.79 1014.38 1015.05 1015.90 1016.27 1015.56
1030.60 1030.22 1029.74 1029.45 1028.98 1028.38 1027.81 1027.04 1026.05 1024.96 1023.63 1022.30 1021.77 1021.11 1020.38 1019.92 1019.97 1020.35 1020.81 1019.74 1017.94 1016.76 1016.33 1016.16 1016.05 1015.99 1015.95 1015.59 1015.25 1015.23 1014.69 1014.02 1013.81 1014.53 1014.83 1015.29 1015.66 1014.34 1013.86 1013.48 1013.18 1013.97 1014.15 1014.64 1015.05 1015.30 1015.05
1030.82 1030.47 1030.08 1029.63 1029.24 1028.68 1027.96 1027.28 1026.41 1025.32 1024.15 1023.14 1022.98 1022.13 1020.52 1020.11 1020.88 1021.23 1020.98 1020.06 1018.65 1017.38 1016.82 1016.58 1016.38 1016.28 1016.10 1015.87 1015.61 1015.35 1014.52 1013.80 1013.54 1013.99 1014.81 1014.98 1015.48 1015.18 1013.56 1012.67 1012.61 1012.87 1013.13 1013.59 1014.32 1014.38 1014.26
1031.05 1030.62 1030.24 1029.93 1029.45 1028.98 1028.38 1027.62 1026.74 1025.78 1025.10 1024.55 1024.35 1023.25 1021.04 1020.86 1021.72 1022.22 1021.71 1020.53 1019.42 1018.48 1018.02 1017.45 1017.14 1016.81 1016.60 1016.55 1016.21 1015.24 1014.48 1013.78 1013.91 1014.23 1014.49 1014.99 1015.26 1015.21 1013.47 1013.07 1012.76 1012.85 1012.48 1012.82 1013.31 1013.63 1013.31
1031.29 1031.04 1030.66 1030.20 1029.83 1029.25 1028.64 1027.99 1027.24 1026.10 1025.23 1025.14 1024.67 1024.36 1023.01 1022.76 1023.51 1023.80 1023.45 1021.98 1020.73 1019.46 1019.01 1018.70 1018.07 1017.55 1017.69 1017.40 1016.85 1016.03 1015.38 1014.63 1014.50 1014.60 1014.78 1014.95 1015.18 1014.92 1014.27 1013.07 1012.91 1012.87 1012.43 1012.59 1013.07 1013.38 1012.18
1031.50 1031.13 1030.89 1030.50 1030.00 1029.58 1029.11 1028.42 1027.89 1026.73 1025.59 1025.28 1025.93 1026.34 1026.82 1025.91 1025.19 1025.41 1024.71 1023.51 1022.43 1021.51 1020.56 1020.14 1019.42 1020.31 1020.40 1019.30 1018.18 1017.39 1016.68 1016.01 1015.28 1015.00 1015.11 1015.56 1015.44 1014.84 1013.81 1013.13 1012.97 1012.28 1011.90 1011.91 1011.94 1010.85 1011.29
1031.54 1031.13 1030.93 1030.51 1029.99 1029.93 1029.58 1028.99 1028.41 1027.79 1026.82 1027.26 1028.01 1028.13 1027.92 1027.46 1026.61 1026.08 1025.36 1024.64 1023.93 1023.68 1023.35 1022.10 1021.67 1021.78 1021.52 1021.06 1020.21 1019.45 1018.86 1018.27 1016.91 1015.88 1015.86 1015.70 1015.34 1014.91 1013.77 1012.79 1012.02 1011.49 1010.28 1010.36 1010.07 1009.72 1009.31
1031.57 1031.20 1030.73 1030.41 1030.29 1029.91 1029.77 1029.51 1028.96 1028.53 1028.33 1028.74 1029.14 1028.92 1028.60 1028.13 1027.53 1027.24 1026.31 1025.79 1025.18 1024.96 1023.77 1023.17 1023.34 1022.75 1021.98 1021.46 1020.73 1019.91 1019.09 1018.27 1017.34 1016.86 1016.52 1016.35 1015.76 1015.24 1013.71 1012.84 1011.80 1010.32 1008.27 1008.17 1007.87 1007.76 1007.30
1031.63 1031.20 1030.73 1030.24 1030.05 1029.89 1029.81 1029.41 1029.37 1029.13 1029.02 1029.44 1029.74 1029.66 1029.21 1028.37 1028.23 1027.81 1027.00 1026.61 1026.08 1025.79 1025.25 1024.61 1024.16 1023.47 1022.23 1021.59 1020.12 1018.34 1017.30 1016.50 1015.83 1015.14 1015.27 1015.04 1015.35 1015.06 1013.95 1013.28 1011.29 1007.66 1006.68 1006.59 1006.70 1005.99 1005.90
1031.34 1031.05 1030.87 1030.57 1030.20 1029.80 1029.65 1029.44 1029.32 1029.27 1029.08 1029.38 1029.61 1029.69 1029.32 1028.57 1028.11 1027.54 1026.99 1026.71 1026.33 1025.89 1025.47 1024.70 1023.97 1023.10 1022.48 1021.83 1020.59 1018.24 1016.28 1015.04 1013.87 1013.64 1013.77 1013.81 1014.05 1014.20 1013.70 1012.38 1009.59 1007.59 1006.07 1005.96 1005.55 1004.46 1004.13
1031.07 1030.87 1030.58 1030.43 1030.39 1029.80 1029.52 1029.41 1029.27 1029.12 1028.98 1029.45 1029.50 1029.30 1029.35 1028.69 1027.56 1027.25 1027.21 1026.88 1026.29 1025.52 1024.79 1023.84 1023.29 1022.82 1022.50 1021.95 1021.38 1019.75 1017.83 1015.80 1014.38 1013.27 1012.89 1012.83 1012.81 1013.27 1012.81 1011.27 1008.96 1006.66 1005.41 1005.10 1005.01 1004.16 1002.36
1030.82 1030.70 1030.48 1030.13 1030.03 1029.73 1029.37 1029.25 1029.07 1028.81 1028.62 1028.78 1028.87 1028.80 1028.95 1028.23 1026.98 1026.79 1026.61 1026.30 1026.30 1025.80 1025.00 1024.14 1023.59 1022.77 1022.33 1022.06 1021.43 1019.96 1017.89 1016.70 1014.88 1013.99 1013.72 1013.56 1012.76 1011.95 1011.19 1010.53 1007.83 1006.20 1005.66 1005.57 1005.11 1002.87 1001.87
1030.60 1030.40 1029.98 1029.74 1029.61 1029.34 1029.02 1028.76 1028.56 1028.34 1028.07 1028.15 1028.24 1028.17 1028.41 1027.52 1026.14 1025.72 1025.70 1025.82 1025.33 1025.41 1024.80 1024.00 1023.73 1022.66 1021.89 1021.70 1020.91 1019.36 1017.16 1016.22 1015.35 1014.56 1014.24 1012.82 1012.55 1012.00 1011.07 1010.10 1008.08 1005.91 1005.86 1005.53 1003.92 1002.53 1002.34
1030.10 1029.99 1029.70 1029.42 1029.22 1028.98 1028.72 1028.35 1028.00 1027.73 1027.45 1027.24 1027.73 1027.16 1027.27 1027.35 1025.33 1024.52 1024.23 1024.16 1024.15 1024.12 1024.38 1023.75 1023.48 1022.98 1022.29 1021.80 1021.32 1019.94 1018.53 1017.25 1016.57 1015.01 1013.19 1012.38 1012.24 1011.19 1009.92 1007.98 1006.95 1006.05 1004.81 1003.97 1003.73 1003.70 1003.26
Wind_Speed
12 12 12 13 13 14 15 15 15 16 17 17 17 17 15 13 13 13 14 14 14 14 12 11 11 12 4 3 5 3 1 4 4 5 5 3 4 3 3 4 6 5 5 7 9 10 11
12 13 13 13 14 15 16 16 17 17 18 18 18 17 16 16 15 14 14 14 14 14 13 11 9 7 0 3 4 4 2 1 2 3 6 4 1 2 4 4 1 4 7 9 8 9 8
12 13 13 13 14 15 16 17 17 18 19 20 20 18 17 16 16 15 15 15 14 14 13 11 8 2 1 9 4 5 4 3 3 2 2 2 1 3 3 5 2 6 7 7 6 7 5
12 12 13 14 15 15 16 17 18 18 19 21 21 21 19 17 17 17 15 14 15 14 12 9 4 2 6 1 1 4 4 4 5 4 4 4 1 2 2 6 6 2 1 5 5 2 6
14 13 14 14 15 16 17 18 18 19 20 21 22 22 22 21 18 16 16 16 13 11 6 2 3 2 7 1 2 4 4 3 4 4 4 2 2 2 4 4 3 7 5 4 8 4 3
12 13 14 15 16 16 17 18 19 19 20 22 22 22 22 22 20 17 16 12 2 1 2 2 2 2 3 3 3 3 3 3 3 4 1 2 3 3 3 2 2 4 4 5 6 4 4
12 12 12 14 15 16 18 17 18 20 20 20 22 22 23 23 20 16 8 3 6 2 2 6 2 4 2 2 2 3 4 1 2 1 2 2 2 5 8 7 6 5 5 10 8 8 3
11 12 14 15 16 17 18 19 20 22 22 22 22 23 23 23 23 15 3 5 1 2 8 5 7 6 5 2 3 4 5 2 2 4 2 2 7 7 6 6 5 7 8 9 8 4 6
16 18 19 20 20 21 21 21 22 22 24 24 23 23 24 25 20 4 3 2 1 3 1 7 4 3 2 4 4 4 8 3 5 4 5 5 6 4 4 4 4 6 6 5 6 7 6
19 18 18 19 19 20 21 21 22 23 24 25 24 23 23 29 5 3 1 2 1 3 5 5 3 3 3 2 4 1 7 3 3 5 4 6 3 5 3 4 3 4 4 5 6 5 3
17 17 18 18 20 20 21 21 22 23 24 24 24 24 21 16 4 0 1 1 0 3 6 4 3 1 2 4 4 3 1 3 5 5 3 8 4 5 5 6 6 8 2 5 4 4 4
15 16 18 19 20 20 21 22 23 24 24 26 26 24 21 1 2 3 0 1 3 8 8 3 2 2 1 4 3 2 1 1 3 4 3 10 4 5 7 4 7 2 4 5 1 1 3
16 17 17 19 20 21 23 24 25 26 27 27 30 26 16 2 3 1 2 3 7 5 2 3 4 3 2 4 3 5 4 3 3 4 4 5 4 3 3 2 1 4 5 5 6 3 7
16 17 18 19 21 21 23 24 26 28 29 30 30 25 4 3 2 3 3 6 3 6 7 1 1 1 4 4 5 2 3 4 5 3 2 2 8 6 4 6 5 4 6 5 4 3 7
16 18 19 20 22 24 25 26 28 28 30 33 25 4 3 4 3 3 5 3 10 8 3 2 2 2 3 3 3 1 6 5 6 8 7 2 7 1 4 2 7 2 4 4 2 1 3
16 18 19 20 21 23 25 27 29 30 30 30 6 4 3 4 3 4 4 7 5 2 2 1 5 6 5 3 3 2 4 4 3 5 4 2 6 2 2 2 4 4 1 2 3 2 5
17 17 18 20 20 22 24 27 29 31 32 27 2 4 3 4 2 4 3 7 5 5 4 1 2 4 6 4 6 4 6 6 4 4 3 3 4 6 1 6 6 3 3 3 2 5 4
16 16 18 19 21 22 24 27 29 31 32 9 4 3 4 2 3 1 2 4 9 5 2 5 3 4 5 2 4 5 9 7 6 8 7 6 5 5 11 3 4 4 7 6 5 5 4
13 15 17 18 20 22 24 27 29 32 30 4 5 4 4 4 2 4 6 6 3 6 5 4 4 5 1 2 5 5 4 3 5 7 7 6 3 4 8 2 1 5 5 5 2 3 7
14 16 16 18 20 21 23 26 27 31 32 3 3 5 5 5 4 5 6 5 7 7 2 7 5 4 6 3 5 6 5 3 2 4 4 4 5 8 10 7 0 5 4 3 5 3 4
13 14 15 17 18 20 22 24 26 28 30 4 5 5 3 6 4 7 4 4 7 7 7 8 6 9 8 6 6 5 6 8 4 3 3 3 6 6 10 15 8 16 18 13 12 14 9
12 13 15 16 17 19 20 21 24 24 22 6 4 5 5 5 6 5 5 5 8 7 7 9 4 15 13 7 10 7 14 6 8 3 3 3 6 4 6 9 11 11 16 14 18 18 16
12 12 13 14 16 16 18 19 20 21 12 4 3 3 1 4 4 3 3 4 9 16 10 5 16 17 13 16 14 20 17 18 18 15 5 4 4 2 10 5 7 7 13 17 6 7 9
12 13 13 13 12 14 16 15 16 16 10 2 2 1 2 4 2 3 8 13 16 13 15 18 14 12 6 15 21 16 17 16 18 19 16 12 4 4 6 2 13 9 3 5 11 8 14
15 15 15 14 15 11 14 14 14 14 13 2 1 2 2 5 4 13 11 9 9 10 9 14 19 18 6 12 12 10 4 6 15 16 17 18 12 6 9 7 14 18 9 7 9 11 14
14 14 15 14 15 14 12 14 14 13 13 2 2 2 3 5 4 6 11 9 13 11 8 6 7 7 4 4 4 9 7 5 6 6 2 5 9 12 3 6 9 6 4 1 3 8 9
15 15 16 15 16 15 14 13 14 14 14 4 3 4 2 8 10 5 4 6 6 10 12 13 10 4 2 3 11 11 15 9 16 15 3 2 3 19 16 14 9 7 3 3 4 9 4
15 16 16 16 17 16 16 16 15 16 15 6 4 5 3 7 12 21 18 15 11 7 12 4 6 5 5 5 5 6 7 1 7 10 13 18 10 6 8 10 20 6 3 8 5 7 4
15 17 17 17 17 18 18 18 18 18 18 12 3 4 4 6 12 19 20 24 27 26 12 11 14 20 8 8 6 5 10 12 12 12 7 7 12 13 11 9 5 4 8 5 2 3 6
Wind_Direction
50 45 39 31 27 22 17 12 9 5 2 358 358 353 345 332 324 318 313 307 305 302 302 306 317 329 352 348 257 204 341 323 338 348 333 320 18 350 309 327 325 246 256 263 277 288 287
45 41 35 31 26 22 16 12 5 4 0 356 355 353 345 334 325 317 310 305 302 299 301 304 316 329 357 278 134 178 161 215 357 17 342 17 22 287 276 262 248 296 286 279 282 282 270
44 39 33 28 26 20 18 14 8 4 1 356 353 348 342 334 326 319 310 303 300 297 295 298 306 272 250 237 178 186 200 212 194 143 354 329 346 8 299 287 306 275 296 305 255 255 271
39 38 34 30 29 27 21 17 12 6 2 357 353 349 342 333 326 320 310 302 298 293 288 281 256 190 247 176 156 218 216 280 232 205 186 253 244 276 239 302 309 270 344 330 292 267 259
52 44 39 32 29 27 21 14 10 6 359 355 351 348 344 335 326 322 315 304 291 290 225 197 131 175 272 121 224 216 187 250 277 229 221 223 101 273 329 320 341 17 304 277 304 229 260
53 44 35 31 24 19 15 8 3 359 355 350 346 344 342 338 330 324 320 309 263 1 130 187 261 11 271 245 181 193 216 213 278 315 333 140 86 345 327 48 277 292 306 289 268 298 219
40 29 23 16 9 3 5 1 356 352 352 347 343 341 341 339 332 327 343 6 17 352 30 217 205 252 267 147 111 216 193 216 240 276 254 212 72 249 249 232 235 230 255 253 267 277 298
21 16 16 18 13 6 2 2 1 357 353 348 343 340 338 339 331 322 85 74 112 207 313 252 250 261 258 175 293 233 133 208 196 264 177 0 236 233 221 258 255 262 263 269 285 294 305
35 29 26 24 17 11 6 1 355 353 350 347 343 340 337 339 329 12 73 127 160 138 241 298 223 221 210 149 255 239 158 194 235 258 223 189 245 181 177 269 283 278 250 270 259 325 280
35 28 22 18 12 6 0 358 354 350 349 343 340 337 338 334 54 324 6 309 359 131 55 270 259 264 124 143 276 170 190 192 287 263 265 235 230 205 208 240 215 290 238 278 289 354 260
35 25 21 18 11 4 360 356 352 348 343 340 336 332 333 332 276 177 242 282 119 54 22 238 219 146 128 192 313 209 155 76 245 275 38 261 196 216 241 210 168 237 273 258 276 270 322
29 28 22 14 12 3 1 357 354 348 342 339 333 329 329 3 301 244 55 23 48 43 262 305 187 234 241 196 252 110 181 81 248 294 220 252 304 195 216 228 182 285 331 301 209 152 350
36 29 22 17 12 6 0 358 353 348 342 336 330 323 318 185 226 146 88 55 27 133 302 223 231 186 225 248 247 176 205 211 193 360 328 313 223 262 176 271 24 104 52 333 350 3 234
35 29 22 20 14 9 5 358 354 348 342 335 328 319 263 213 167 92 59 54 156 238 231 4 178 258 229 202 243 217 272 280 218 147 306 320 324 187 187 203 189 191 150 152 266 269 274
36 29 26 22 15 11 2 359 355 350 343 336 329 328 325 327 137 73 83 84 212 210 219 181 313 236 264 235 229 290 214 224 220 171 173 247 269 259 208 183 143 158 179 184 203 244 26
33 28 23 18 14 11 5 1 355 351 345 339 324 333 335 332 75 69 84 234 258 254 106 105 208 189 244 218 183 167 271 205 225 180 141 234 300 244 315 46 265 196 214 64 358 290 287
24 24 20 15 12 9 6 2 358 355 349 343 7 41 283 355 52 54 182 239 297 354 344 255 271 289 240 272 206 203 252 278 170 148 130 152 146 287 27 203 194 121 261 220 176 167 217
21 19 16 14 12 8 7 3 360 357 354 18 354 56 303 23 48 27 241 322 331 325 317 275 231 236 237 276 265 239 229 224 166 150 173 210 167 260 236 233 207 192 214 171 147 244 233
18 16 17 13 12 8 6 4 1 358 359 338 355 298 314 56 70 348 329 315 295 349 324 319 286 221 34 265 290 229 276 333 159 165 174 185 228 326 324 12 43 254 213 214 113 58 218
14 14 13 11 10 9 8 6 2 358 353 38 10 350 338 29 25 41 350 294 333 316 267 334 279 333 337 287 234 284 300 324 214 223 179 171 209 195 231 240 171 259 248 219 178 170 237
11 11 7 9 9 10 8 7 4 3 355 46 14 47 17 342 340 331 271 274 296 352 353 8 348 42 5 296 314 268 352 337 302 259 176 188 240 198 253 262 260 261 259 242 209 225 216
5 3 1 2 8 6 6 7 7 12 3 57 49 9 351 295 301 353 339 326 341 2 336 318 14 346 335 300 312 324 331 351 268 347 221 192 257 236 265 252 241 259 262 247 242 249 248
349 347 348 356 357 4 3 3 7 9 35 37 0 318 235 290 329 356 271 355 319 331 295 301 339 328 317 301 307 298 280 272 256 269 242 240 217 188 268 286 310 272 240 234 225 206 211
330 333 339 343 350 357 354 358 360 4 36 104 269 7 328 284 250 278 293 294 289 283 283 296 306 301 271 320 304 275 251 252 242 243 227 230 204 189 265 353 267 244 222 212 223 243 210
336 331 335 335 336 346 347 347 349 351 357 84 251 328 294 286 282 282 274 284 308 290 293 289 284 269 299 321 312 298 290 270 252 229 220 215 214 239 236 219 278 292 278 203 172 267 215
328 325 322 329 325 332 338 338 334 334 336 63 221 215 275 292 239 320 303 297 289 284 282 236 289 299 291 283 251 265 276 316 272 295 343 208 237 211 173 212 228 237 296 124 166 271 224
319 322 316 316 320 321 320 320 319 318 316 311 256 191 212 278 276 267 262 303 311 292 286 300 293 288 270 254 280 259 257 263 255 247 228 221 198 218 230 239 274 243 223 205 174 234 211
312 310 313 315 314 312 312 310 307 305 305 318 263 188 191 267 275 263 274 282 281 250 271 347 310 239 256 233 253 255 264 277 299 308 303 247 225 203 218 226 254 230 115 200 251 311 289
307 307 308 310 310 310 310 308 306 303 301 298 252 221 192 235 268 287 274 257 256 253 264 261 262 272 264 291 255 270 278 296 299 281 283 263 270 265 204 212 281 301 241 269 241 261 297